TimeCDT,TemperatureF,Dew PointF,Humidity,Sea Level PressureIn,VisibilityMPH,Wind Direction,Wind SpeedMPH,Gust SpeedMPH,PrecipitationIn,Events,Conditions,WindDirDegrees,DateUTC
12:15 AM,24.8,10.4,54,30.23,10.0,North,12.7,-,N/A,,Clear,10,2014-04-14 05:15:00
12:34 AM,24.8,10.4,54,30.23,10.0,North,15.0,19.6,N/A,,Clear,10,2014-04-14 05:34:00
12:54 AM,24.8,12.2,59,30.23,10.0,North,13.8,-,N/A,,Clear,360,2014-04-14 05:54:00
1:15 AM,23.0,12.2,63,30.24,10.0,North,11.5,-,N/A,,Clear,10,2014-04-14 06:15:00
1:34 AM,23.0,12.2,63,30.24,10.0,North,6.9,-,N/A,,Clear,10,2014-04-14 06:34:00
1:54 AM,21.2,12.2,68,30.23,10.0,North,9.2,-,N/A,,Clear,10,2014-04-14 06:54:00
2:14 AM,21.2,10.4,63,30.23,10.0,NNE,8.1,-,N/A,,Clear,20,2014-04-14 07:14:00
2:34 AM,21.2,10.4,63,30.22,10.0,NNE,6.9,-,N/A,,Clear,30,2014-04-14 07:34:00
2:55 AM,21.2,12.2,68,30.22,10.0,NNE,5.8,-,N/A,,Clear,30,2014-04-14 07:55:00
3:14 AM,21.2,12.2,68,30.21,10.0,NNE,6.9,-,N/A,,Clear,30,2014-04-14 08:14:00
3:35 AM,21.2,10.4,63,30.21,10.0,NNE,6.9,-,N/A,,Clear,20,2014-04-14 08:35:00
3:55 AM,21.2,10.4,63,30.20,10.0,NNE,5.8,-,N/A,,Clear,30,2014-04-14 08:55:00
4:14 AM,19.4,12.2,74,30.20,10.0,North,6.9,-,N/A,,Clear,10,2014-04-14 09:14:00
4:35 AM,19.4,12.2,74,30.19,10.0,North,8.1,-,N/A,,Clear,10,2014-04-14 09:35:00
4:55 AM,21.2,12.2,68,30.19,10.0,North,5.8,-,N/A,,Clear,10,2014-04-14 09:55:00
5:14 AM,21.2,12.2,68,30.19,10.0,North,8.1,-,N/A,,Mostly Cloudy,360,2014-04-14 10:14:00
5:35 AM,21.2,10.4,63,30.19,10.0,North,8.1,-,N/A,,Overcast,10,2014-04-14 10:35:00
5:55 AM,21.2,10.4,63,30.19,10.0,North,6.9,-,N/A,,Overcast,10,2014-04-14 10:55:00
6:14 AM,21.2,10.4,63,30.20,10.0,North,9.2,-,N/A,,Overcast,350,2014-04-14 11:14:00
6:35 AM,21.2,8.6,58,30.20,10.0,North,8.1,-,N/A,,Overcast,360,2014-04-14 11:35:00
6:54 AM,23.0,10.4,59,30.21,10.0,North,6.9,-,N/A,,Overcast,360,2014-04-14 11:54:00
7:14 AM,23.0,8.6,54,30.21,10.0,North,9.2,-,N/A,,Overcast,10,2014-04-14 12:14:00
7:35 AM,23.0,8.6,54,30.22,10.0,North,10.4,-,N/A,,Overcast,360,2014-04-14 12:35:00
7:55 AM,23.0,8.6,54,30.22,10.0,North,9.2,-,N/A,,Mostly Cloudy,10,2014-04-14 12:55:00
8:14 AM,24.8,8.6,50,30.23,10.0,North,12.7,-,N/A,,Scattered Clouds,360,2014-04-14 13:14:00
8:35 AM,24.8,8.6,50,30.23,10.0,North,10.4,-,N/A,,Scattered Clouds,360,2014-04-14 13:35:00
8:54 AM,24.8,6.8,46,30.23,10.0,North,11.5,-,N/A,,Scattered Clouds,360,2014-04-14 13:54:00
9:14 AM,24.8,6.8,46,30.24,10.0,North,11.5,-,N/A,,Clear,360,2014-04-14 14:14:00
9:35 AM,24.8,8.6,50,30.24,10.0,North,16.1,-,N/A,,Clear,360,2014-04-14 14:35:00
9:54 AM,24.8,8.6,50,30.24,10.0,North,16.1,19.6,N/A,,Clear,360,2014-04-14 14:54:00
10:14 AM,24.8,10.4,54,30.24,10.0,North,15.0,18.4,N/A,,Clear,360,2014-04-14 15:14:00
10:35 AM,26.6,10.4,51,30.24,10.0,NNW,15.0,-,N/A,,Clear,340,2014-04-14 15:35:00
10:54 AM,26.6,8.6,47,30.25,10.0,North,12.7,-,N/A,,Scattered Clouds,360,2014-04-14 15:54:00
11:15 AM,26.6,10.4,51,30.24,10.0,North,11.5,20.7,N/A,,Scattered Clouds,350,2014-04-14 16:15:00
11:35 AM,26.6,10.4,51,30.24,10.0,NNW,16.1,-,N/A,,Mostly Cloudy,340,2014-04-14 16:35:00
11:54 AM,24.8,12.2,59,30.24,10.0,NNW,11.5,21.9,N/A,,Mostly Cloudy,340,2014-04-14 16:54:00
12:15 PM,24.8,15.8,69,30.24,3.0,North,19.6,24.2,N/A,Snow,Light Snow,350,2014-04-14 17:15:00
12:34 PM,26.6,15.8,64,30.24,10.0,North,19.6,26.5,N/A,,Overcast,350,2014-04-14 17:34:00
12:54 PM,26.6,12.2,55,30.24,10.0,NNW,19.6,28.8,N/A,,Scattered Clouds,340,2014-04-14 17:54:00
1:14 PM,26.6,12.2,55,30.23,10.0,NNW,18.4,-,N/A,,Scattered Clouds,340,2014-04-14 18:14:00
1:34 PM,24.8,12.2,59,30.23,10.0,North,20.7,28.8,N/A,,Mostly Cloudy,350,2014-04-14 18:34:00
1:55 PM,24.8,12.2,59,30.23,10.0,NNW,21.9,27.6,N/A,,Overcast,340,2014-04-14 18:55:00
2:14 PM,24.8,10.4,54,30.23,10.0,North,23.0,28.8,N/A,,Overcast,350,2014-04-14 19:14:00
2:34 PM,24.8,10.4,54,30.23,10.0,NNW,18.4,28.8,N/A,,Mostly Cloudy,340,2014-04-14 19:34:00
2:55 PM,26.6,12.2,55,30.23,10.0,North,24.2,29.9,N/A,,Scattered Clouds,350,2014-04-14 19:55:00
3:14 PM,24.8,10.4,54,30.23,10.0,North,23.0,28.8,N/A,,Mostly Cloudy,350,2014-04-14 20:14:00
3:34 PM,24.8,10.4,54,30.23,10.0,North,24.2,27.6,N/A,,Mostly Cloudy,350,2014-04-14 20:34:00
3:55 PM,24.8,10.4,54,30.22,10.0,NNW,21.9,29.9,N/A,,Mostly Cloudy,340,2014-04-14 20:55:00
4:14 PM,24.8,10.4,54,30.22,10.0,North,24.2,31.1,N/A,,Mostly Cloudy,350,2014-04-14 21:14:00
4:35 PM,24.8,10.4,54,30.22,10.0,North,23.0,33.4,N/A,,Mostly Cloudy,360,2014-04-14 21:35:00
4:54 PM,24.8,10.4,54,30.22,10.0,North,25.3,29.9,N/A,,Mostly Cloudy,350,2014-04-14 21:54:00
5:14 PM,24.8,10.4,54,30.22,10.0,North,21.9,28.8,N/A,,Mostly Cloudy,350,2014-04-14 22:14:00
5:35 PM,24.8,10.4,54,30.22,10.0,North,20.7,27.6,N/A,,Mostly Cloudy,350,2014-04-14 22:35:00
5:54 PM,24.8,8.6,50,30.22,10.0,NNW,24.2,28.8,N/A,,Scattered Clouds,340,2014-04-14 22:54:00
6:14 PM,23.0,8.6,54,30.22,10.0,North,19.6,28.8,N/A,,Scattered Clouds,350,2014-04-14 23:14:00
6:35 PM,21.2,8.6,58,30.22,10.0,North,21.9,32.2,N/A,,Scattered Clouds,350,2014-04-14 23:35:00
6:54 PM,21.2,6.8,54,30.23,10.0,North,24.2,27.6,N/A,,Scattered Clouds,360,2014-04-14 23:54:00
7:14 PM,21.2,8.6,58,30.22,10.0,North,23.0,27.6,N/A,,Clear,360,2014-04-15 00:14:00
7:35 PM,21.2,6.8,54,30.22,10.0,North,23.0,29.9,N/A,,Clear,350,2014-04-15 00:35:00
7:54 PM,19.4,6.8,58,30.22,10.0,North,20.7,27.6,N/A,,Clear,360,2014-04-15 00:54:00
8:14 PM,19.4,6.8,58,30.23,10.0,North,18.4,25.3,N/A,,Clear,360,2014-04-15 01:14:00
8:35 PM,19.4,6.8,58,30.23,10.0,North,19.6,26.5,N/A,,Clear,360,2014-04-15 01:35:00
8:54 PM,19.4,6.8,58,30.23,10.0,North,16.1,19.6,N/A,,Clear,350,2014-04-15 01:54:00
9:15 PM,19.4,5.0,54,30.23,10.0,North,18.4,24.2,N/A,,Clear,350,2014-04-15 02:15:00
9:35 PM,19.4,6.8,58,30.24,10.0,North,15.0,25.3,N/A,,Clear,350,2014-04-15 02:35:00
9:54 PM,17.6,6.8,63,30.24,10.0,North,15.0,-,N/A,,Clear,350,2014-04-15 02:54:00
10:15 PM,17.6,5.0,58,30.23,10.0,North,17.3,-,N/A,,Clear,350,2014-04-15 03:15:00
10:35 PM,17.6,6.8,63,30.23,10.0,North,15.0,-,N/A,,Clear,360,2014-04-15 03:35:00
10:54 PM,17.6,6.8,63,30.23,10.0,North,12.7,-,N/A,,Clear,360,2014-04-15 03:54:00
11:15 PM,17.6,6.8,63,30.23,10.0,North,12.7,-,N/A,,Clear,360,2014-04-15 04:15:00
11:34 PM,17.6,5.0,58,30.22,10.0,North,12.7,-,N/A,,Clear,360,2014-04-15 04:34:00
11:54 PM,17.6,6.8,63,30.22,10.0,North,11.5,-,N/A,,Clear,360,2014-04-15 04:54:00